Location: Newark
(43.0000°N, 1.6781°W)
Time: 04:16:33
(UTC+00:00)

Explorer 7 - Pass Details

Date: 27 April 2021
Orbit: 484 x 677 km, 50.3° (Epoch: 07 May)

Event Time Altitude Azimuth Distance (km) Brightness Sun altitude
Rises 22:44:38 0° 299° (WNW) 2,729 11.1 -30.0°
Reaches altitude 10° 22:46:49 10° 299° (WNW) 1,864 10.1 -30.2°
Enters shadow 22:48:34 24° 298° (WNW) 1,205 8.9 -30.3°
Maximum altitude 22:51:05 83° 213° (SSW) 601 - -30.4°
Drops below altitude 10° 22:55:38 10° 125° (SE) 1,980 - -30.7°
Sets 22:58:01 0° 124° (SE) 2,914 - -30.9°
